Regional Weather Roundup
Issued by NWS

Home | Current Version | Previous Version | Text Only | Print | Product List | Glossary On
Versions: 1 2 3 4 5 6 7 8 9 10 11 12 13 14 15 16 17 18 19 20 21 22 23 24 25 26 27 28 29 30 31 32 33 34 35 36 37 38 39 40 41 42 43 44 45 46 47 48 49 50
000
ASUS43 KFSD 030910
RWRSD

WEATHER ROUNDUP FOR SOUTH DAKOTA
NATIONAL WEATHER SERVICE SIOUX FALLS SD
400 AM CDT TUE AUG 03 2021

NOTE: "FAIR" INDICATES FEW OR NO CLOUDS BELOW 12,000 FEET WITH NO
SIGNIFICANT WEATHER AND/OR OBSTRUCTIONS TO VISIBILITY.


SDZ001>005-009-010-012>017-031000-
NORTHWEST AND NORTH CENTRAL SOUTH DAKOTA

CITY           SKY/WX    TMP DP  RH WIND       PRES   REMARKS
BUFFALO          N/A     66  53  63 CALM      30.04F
FAITH            N/A     64  56  75 SE14      30.06S
MOBRIDGE       CLEAR     65  56  72 S8        30.04F
$$

SDZ012>016-024>037-041>051-057-063-072>074-031000-
SOUTHWEST AND SOUTH CENTRAL SOUTH DAKOTA

CITY           SKY/WX    TMP DP  RH WIND       PRES   REMARKS
RAPID CTY ARPT CLEAR     57  47  69 CALM      30.06F
PIERRE         CLEAR     66  57  72 E8        30.05S
CUSTER         CLEAR     54  43  66 W3        30.21F
ELLSWORTH AFB  CLEAR     68  47  47 CALM      30.06F
PHILIP         CLEAR     62  56  80 E8        30.04F
PINE RIDGE     CLEAR     63  54  72 NW5       30.07F
SPEARFISH      FAIR      64  45  48 CALM      30.09S
WINNER         MOCLDY    66  58  75 S8        30.08S
$$

SDZ004>011-016>023-039-040-031000-
NORTHEAST SOUTH DAKOTA

CITY           SKY/WX    TMP DP  RH WIND       PRES   REMARKS
ABERDEEN       CLEAR     55  52  89 S6        30.08S
WATERTOWN      PTCLDY    57  55  93 SE6       30.10F
BROOKINGS      PTCLDY    60  56  86 S5        30.12S
SISSETON         N/A     64  56  75 SW6       30.06S
$$

SDZ017-020-022-023-036>040-048>070-031000-
SOUTHEAST SOUTH DAKOTA

CITY           SKY/WX    TMP DP  RH WIND       PRES   REMARKS
SIOUX FALLS    CLEAR     66  57  72 SW5       30.12S
HURON          CLEAR     59  56  89 SE3       30.08F
CHAMBERLAIN    CLEAR     62  62 100 CALM      30.09S
MITCHELL       CLEAR     59  57  93 SE5       30.10S FOG
YANKTON        CLEAR     60  58  92 CALM      30.12S
$$

ABBREVIATIONS USED IN REMARKS
   TC - TEMPERATURE IN CELSIUS
  WCI - WIND CHILL INDEX
   HX - HEAT INDEX
  VSB - VISIBILITY




USA.gov is the U.S. government's official web portal to all federal, state and local government web resources and services.